Location: N�rnberg
(49.4471°N, 11.0632°E)
Time: 19:07:44
(UTC+01:00)

Envisat - Pass Details

Date: 23 February 2026
Orbit: 761 x 763 km, 98.4° (Epoch: 6 March)

Event Time Altitude Azimuth Distance (km) Brightness Sun altitude
Rises 04:46:21 0° 2° (N) 3,236 6.4 -24.1°
Reaches altitude 10° 04:49:26 10° 343° (NNW) 2,306 5.4 -23.6°
Enters shadow 04:50:25 13° 333° (NNW) 2,088 5.1 -23.4°
